Regional Weather Roundup
Issued by NWS Charleston, SC

Current Version | Previous Version | Graphics & Text | Print | Product List | Glossary On
Versions: 1 2 3 4 5 6 7 8 9 10 11 12 13 14 15 16 17 18 19 20 21 22 23 24 25 26 27 28 29 30 31 32 33 34 35 36 37 38 39 40 41 42 43 44 45 46 47 48 49 50
203
ASUS42 KCHS 201227
RWRCHS

REGIONAL WEATHER ROUNDUP
NATIONAL WEATHER SERVICE CHARLESTON SC
700 AM EST MON NOV 20 2017

NOTE: "FAIR" INDICATES FEW OR NO CLOUDS BELOW 12,000 FEET WITH NO
SIGNIFICANT WEATHER AND/OR OBSTRUCTIONS TO VISIBILITY.

NOT ALL STATIONS ARE QUALITY CONTROLLED. USE DATA WITH CAUTION...
ESPECIALLY DEWPOINT OBSERVATIONS.

SCZ027-030-031-034>040-042>050-201300-
...SOUTHEAST SOUTH CAROLINA...

CITY           SKY/WX    TMP DP  RH WIND       PRES   REMARKS
N CHARLESTON   CLEAR     36  32  85 N6        30.22R WCI  31
6HR MIN TEMP:  36; 6HR MAX TEMP:  46;

WATERFRONT PRK NOT AVBL
JOHNS ISLAND   FAIR      43  32  65 N7        30.23R
PINOPOLIS        N/A     45  36  70 NE7       30.15R
MONCKS CORNER  FAIR      32  30  93 CALM      30.24R
SUMMERVILLE    FAIR      32  32 100 CALM      30.24R
BEAUFORT MCAS  NOT AVBL
BEAUFORT ARPT  FAIR      45  36  70 NE12      30.22R
HILTON HEAD IS CLEAR    N/A N/A N/A N9        30.21
WALTERBORO     SUNNY     30  28  93 CALM      30.25R
ALLENDALE      FAIR      32  30  93 CALM      30.23R

...SOUTHERN MIDLANDS AND PEE DEE...

CITY           SKY/WX    TMP DP  RH WIND       PRES   REMARKS
GEORGETOWN     FAIR      30  30 100 CALM      30.24R
KINGSTREE      FAIR      28  27  93 CALM      30.25R
ORANGEBURG     MIX PCPN  32  29  88 CALM      30.24R
6HR MIN TEMP:  31; 6HR MAX TEMP:  40; 6HR PCP: TRACE;

BARNWELL         N/A     30  28  93 CALM      30.24R
AIKEN          FAIR      28  27  93 CALM      30.26R
MANNING        FAIR      30  30 100 MISG      30.25R
COLUMBIA       CLEAR     30  28  92 CALM      30.24R
6HR MIN TEMP:  30; 6HR MAX TEMP:  40;

SUMTER         CLEAR     30  26  85 CALM      30.22R
6HR MIN TEMP:  30; 6HR MAX TEMP:  40;

FLORENCE       CLEAR     34  29  82 N5        30.24R WCI  30
6HR MIN TEMP:  30; 6HR MAX TEMP:  41;

MYRTLE BEACH   CLEAR     35  30  82 CALM      30.24R
N MYRTLE BEACH CLEAR     35  31  85 N5        30.22R WCI  31
6HR MIN TEMP:  32; 6HR MAX TEMP:  43;


$$

GAZ063-065-086>088-099>101-113>116-118-119-134>141-150-201300-
...SOUTHEAST GEORGIA...

CITY           SKY/WX    TMP DP  RH WIND       PRES   REMARKS
SAVANNAH ARPT  PTCLDY    37  35  92 N3        30.22R
6HR MIN TEMP:  35; 6HR MAX TEMP:  43;

HUNTER AAF     CLEAR     41  34  75 NE5       30.17R
6HR MIN TEMP:  41; 6HR MAX TEMP:  44;

FORT STEWART   PTCLDY    35  31  84 N5        30.18R WCI  31
6HR MIN TEMP:  35; 6HR MAX TEMP:  41;

STATESBORO     CLEAR     35  31  83 CALM      30.23R
SYLVANIA       SUNNY     36  33  90 CALM      30.23R
CLAXTON        FAIR      32  31  97 CALM      30.22R

...CSRA...CENTRAL AND FAR SOUTHEAST GEORGIA...

CITY           SKY/WX    TMP DP  RH WIND       PRES   REMARKS
THOMSON        CLEAR     27  25  95 CALM      30.28S
AUGUSTA-BUSH   CLEAR     28  26  92 CALM      30.24R
6HR MIN TEMP:  27; 6HR MAX TEMP:  38;

AUGUSTA-DANIEL CLEAR     36  32  85 CALM      30.23R
SWAINSBORO     FAIR      36  34  93 NE5       30.23R WCI  32
VIDALIA        CLEAR     36  34  93 CALM      30.22R
EASTMAN        FAIR      31  26  80 CALM      30.25R
HAZLEHURST     FAIR      37  31  79 N5        30.21R WCI  33
ALMA           CLEAR     36  32  85 N5        30.19R WCI  32
6HR MIN TEMP:  34; 6HR MAX TEMP:  42;

WAYCROSS       CLEAR     35  32  88 CALM      30.20R
JESUP          FAIR      37  32  81 CALM      30.21R
BAXLEY         FAIR      32  32 100 N3        30.21R
BRUNSWICK      CLEAR     36  32  87 CALM      30.20R
SAINT SIMONS   CLEAR     42  37  82 N8        30.18R
6HR MIN TEMP:  41; 6HR MAX TEMP:  49;


$$

SCZ027-028-034-036>038-045-046-048>050-GAZ119-141-201300-
...LAKE AND SUPPLEMENTAL COASTAL OBSERVATIONS...

STATION/POSITION TIME  TEMP    WIND        PRES    WAVE   SWELL
                       AIR SEA DIR/SP/G            HT/PER HT/PER/DIR
                 (UTC) (F)     (DEG/KT/KT) (MB)    (FT/S) (FT/S/D)
WINYAH BAY       1145   36     330/  3     1023.0R
LAKE MURRAY      1220   37      CALM  /  2 1023.4R
ACE BASIN NERRS  1145   39      10/  1     1023.0R
FORT PULASKI     1200   50 62   50/ 12/ 17 1022.9
SAPELO ISLAND    1200   46     360/  8     1022.0

$$

ANZ835-935-AMZ111-154-330-350-352-354-370-450-454-472-201300-
...C-MAN AND BUOY OBSERVATIONS...

STATION/POSITION TIME  TEMP    WIND        PRES    WAVE   SWELL
                       AIR SEA DIR/SP/G            HT/PER HT/PER/DIR
                 (UTC) (F)     (DEG/KT/KT) (MB)    (FT/S) (FT/S/D)
BUOY 41004       1210   57 73   40/ 14/ 19 1021.9
BUOY 41008       1150   60 67   60/ 14/ 17 1021.3R   3/ 5   2/190/11
FOLLY BEACH CMAN 1200   48      20/ 11/ 14 1023.5R
CAPERS NEARSHORE 1208   48 62   30/ 16/ 21 1022.5R
FRIPP NEARSHORE  1208   51 62   50/ 12/ 23 1021.1S


STATION/POSITION TIME  TEMP    WIND        PRES    WAVE   SWELL
                       AIR SEA DIR/SP/G            HT/PER HT/PER/DIR
                 (UTC) (F)     (DEG/KT/KT) (MB)    (FT/S) (FT/S/D)
5E ST. MARYS GA  1200      67                N/A     4/ 6
FRYING PAN BUOY  1210   53 70   10/ 16/ 19 1022.3
BUOY 41025       1210   50 66  330/ 16/ 19 1021.9
CAPE LOOKOUT NC  1200          340/ 12/ 14 1022.7R
BUOY 41002       1150   65 76  360/ 16/ 21 1019.3R   7/ 7
BUOY 41010       NOT AVBL
ST AUGUSTINE FL  1200   62 67   20/ 14/ 17 1020.5R


$$




USA.gov is the U.S. government's official web portal to all federal, state and local government web resources and services.